"TOA5","AWS1","CR1000","7964","CR1000.Std.14","CPU:AWS1_114.CR1","64363","TBL110"
"TIMESTAMP","RECORD","Wind_spd_WVc(1)","Wind_spd_WVc(2)","Air_Temp_Avg","Humidity_Avg","SW_upper_Wm2_Avg","Rain_Tot","Press_Avg","Issui_Tot","Depth_cm","SR50A_Raw","Quality","Ground_Temp_Avg(1)","Ground_Temp_Avg(2)","SW_lower_Wm2_Avg","Albedo_Avg","SWC_per(1)","SWC_per(2)","Period(1)","Period(2)"
"TS","RN","","","","","","","","","","","","","","","","","","",""
"","","WVc","WVc","Avg","Avg","Avg","Tot","Avg","Tot","Smp","Smp","Smp","Avg","Avg","Avg","Avg","Smp","Smp","Smp","Smp"
"2018-05-02 00:00:00",338749,0.32,188.4,10.07,74.15,0,0,868.6703,0,-3.013,3.151,172,11.44,10.01,0.04169712,0,49.79,57.33,33.24,35.06
"2018-05-02 00:10:00",338750,0.221,200.4,10.74,70.96,0,0,868.6703,0,-3.571,3.155,171,11.4,9.99,0.504163,0,49.79,57.33,33.24,35.06
"2018-05-02 00:20:00",338751,0.232,176.3,10.1,74.36,0,0,868.525,0,-2.774,3.151,194,11.37,10.01,0,0,49.79,57.33,33.24,35.06
"2018-05-02 00:30:00",338752,0.033,186.8,10.55,72.5,0,0,868.2953,0,-2.979,3.147,193,11.37,10.02,0.5155517,0,49.79,57.33,33.24,35.06
"2018-05-02 00:40:00",338753,0.052,192.1,10.62,72.1,0,0,868.1649,0,-3.012,3.149,193,11.37,10.02,0.3449655,0,49.73,57.33,33.23,35.06
"2018-05-02 00:50:00",338754,0.034,192.3,10.66,72.39,0,0,868.1395,0,-3.073,3.152,194,11.3,10.04,0.4359461,0,49.73,57.33,33.23,35.06
"2018-05-02 01:00:00",338755,0.39,196,10.06,75.06,0,0,867.9184,0,-2.819,3.15,194,11.3,10.03,0.06065338,0,49.73,57.33,33.23,35.06
"2018-05-02 01:10:00",338756,0.154,189.5,10.11,75.04,0,0,867.9121,0,-2.827,3.152,194,11.27,10.04,0.1705876,0,49.73,57.27,33.23,35.05
"2018-05-02 01:20:00",338757,0.359,188.5,9.95,75.68,0,0,867.9079,0,-2.847,3.151,195,11.21,10.04,0.02274502,0,49.73,57.27,33.23,35.05
"2018-05-02 01:30:00",338758,0.11,186,10.1,75.09,0,0,867.6931,0,-2.802,3.152,194,11.18,10.05,0.1705876,0,49.73,57.27,33.23,35.05
"2018-05-02 01:40:00",338759,0.234,184.8,9.85,76.3,0,0,867.6593,0,-2.876,3.152,194,11.2,10.08,0.03411753,0,49.79,57.27,33.24,35.05
"2018-05-02 01:50:00",338760,0.187,189.9,10,75.58,0,0,867.5624,0,-2.665,3.148,194,11.15,10.09,0.3298028,0,49.73,57.27,33.23,35.05
"2018-05-02 02:00:00",338761,0.28,14.74,10.85,71.19,0,0,867.6867,0,-2.874,3.145,186,11.15,10.09,1.220649,0,49.79,57.27,33.24,35.05
"2018-05-02 02:10:00",338762,0.167,206.1,11.07,70.04,0,0,867.7541,0,-3.097,3.152,192,11.13,10.09,0.8150299,0,49.79,57.27,33.24,35.05
"2018-05-02 02:20:00",338763,0.142,175.9,10.16,74.16,0,0,867.6552,0,-3.332,3.156,190,11.05,10.1,0,0,49.73,57.27,33.23,35.05
"2018-05-02 02:30:00",338764,0.323,181.9,9.61,76.98,0,0,867.4045,0,-3.472,3.161,198,11.03,10.09,0,0,49.79,57.27,33.24,35.05
"2018-05-02 02:40:00",338765,0.332,202,9.62,76.69,0,0,867.3055,0,-3.693,3.161,195,11.03,10.07,0.01895418,0,49.73,57.27,33.23,35.05
"2018-05-02 02:50:00",338766,0.353,185.5,9.46,77.15,0,0,867.3392,0,-3.296,3.16,192,11.01,10.06,0,0,49.73,57.27,33.23,35.05
"2018-05-02 03:00:00",338767,0.539,196.4,9.28,77.69,0,0,867.118,0,-3.086,3.156,197,10.93,10.03,0.1288884,0,49.73,57.27,33.23,35.05
"2018-05-02 03:10:00",338768,0.045,197.6,9.87,74.61,0,0,867.0969,0,-3.641,3.16,196,10.94,10.03,0.4245737,0,49.79,57.27,33.24,35.05
"2018-05-02 03:20:00",338769,0.378,188.5,9.25,77.97,0,0,866.9053,0,-3.37,3.16,195,10.92,10.03,0.01895418,0,49.73,57.27,33.23,35.05
"2018-05-02 03:30:00",338770,0.356,194.6,9.5,77.03,0,0,866.8948,0,-3.499,3.162,201,10.84,10.03,0.3070577,0,49.73,57.22,33.23,35.03
"2018-05-02 03:40:00",338771,0.288,187.8,9.32,77.78,0,0,866.9011,0,-2.882,3.154,196,10.85,10.03,0.2236593,0,49.73,57.22,33.23,35.03
"2018-05-02 03:50:00",338772,0.383,187,9.36,77.47,0,0,866.9011,0,-2.682,3.153,182,10.84,10.03,0.08718923,0,49.73,57.22,33.23,35.03
"2018-05-02 04:00:00",338773,0.215,187.7,9.36,77.68,0,0,866.9011,0,-3.604,3.164,201,10.8,10.03,0.1781693,0,49.79,57.22,33.24,35.03
"2018-05-02 04:10:00",338774,0.271,191.3,9.05,79.65,0,0,866.9904,0,-3.345,3.16,195,10.83,9.99,0.07581673,0,49.79,57.22,33.24,35.03
"2018-05-02 04:20:00",338775,0.459,190.6,8.99,79.73,0,0,867.0306,0,-3.2,3.161,200,10.77,9.99,0.01137251,0,49.79,57.22,33.24,35.03
"2018-05-02 04:30:00",338776,0.49,189.2,8.88,80.5,0,0,866.9246,0,-2.895,3.158,187,10.73,9.99,0.03411753,0,49.79,57.22,33.24,35.03
"2018-05-02 04:40:00",338777,0.274,192.4,8.98,79.79,0,0,867.1698,0,-3.172,3.16,199,10.7,9.99,0.3298028,0,49.73,57.22,33.23,35.03
"2018-05-02 04:50:00",338778,0.264,190.3,9.02,79.4,0,0,867.2294,0,-3.175,3.161,191,10.68,9.99,0.2464044,0,49.79,57.22,33.24,35.03
"2018-05-02 05:00:00",338779,0.428,191.5,8.7,81.1,0.5111115,0,867.2074,0,-2.997,3.159,197,10.64,9.99,0.3790836,0.334,49.73,57.27,33.23,35.05
"2018-05-02 05:10:00",338780,0.254,166.1,8.66,81.3,6.172654,0,867.1985,0,-2.723,3.158,196,10.64,10,1.410191,0.239,49.79,57.27,33.24,35.05
"2018-05-02 05:20:00",338781,0.329,184.4,9.04,80.1,13.60343,0,867.0164,0,-2.655,3.152,198,10.61,10,3.059205,0.225,49.73,57.22,33.23,35.03
"2018-05-02 05:30:00",338782,0.158,152.4,10.07,72.43,19.35147,0,866.9626,0,-2.686,3.147,197,10.61,9.99,4.404952,0.229,49.73,57.27,33.23,35.05
"2018-05-02 05:40:00",338783,0.129,109.7,10.55,69.43,31.06771,0,866.9462,0,-2.808,3.147,196,10.51,9.99,5.709,0.184,49.79,57.22,33.24,35.03
"2018-05-02 05:50:00",338784,0.184,129.7,10.35,72.15,31.7243,0,866.7359,0,-2.567,3.148,190,10.48,9.99,5.056976,0.16,49.79,57.22,33.24,35.03
"2018-05-02 06:00:00",338785,0.055,169.8,10.78,67.54,54.92876,0,866.7171,0,-3.2,3.147,202,10.5,9.99,8.859185,0.161,49.79,57.22,33.24,35.03
"2018-05-02 06:10:00",338786,0.298,168.7,11.3,66.12,73.97749,0,866.6718,0,-3.106,3.148,197,10.51,9.99,11.56963,0.157,49.79,57.22,33.24,35.03
"2018-05-02 06:20:00",338787,0.188,153.4,10.94,70.55,119.8085,0,866.5629,0,-2.547,3.143,194,10.49,9.99,19.05654,0.158,49.79,57.22,33.24,35.03
"2018-05-02 06:30:00",338788,0.105,262.3,11.68,68.22,131.9257,0,866.656,0,-2.803,3.14,193,10.48,9.96,22.57064,0.17,49.73,57.22,33.23,35.03
"2018-05-02 06:40:00",338789,0.125,340.3,11.91,64.88,78.64433,0,866.8193,0,-3.172,3.146,193,10.44,9.94,11.5848,0.145,49.79,57.16,33.24,35.02
"2018-05-02 06:50:00",338790,0.644,137.5,11.5,64.96,70.09697,0,866.6485,0,-3.074,3.146,193,10.41,9.96,9.514999,0.134,49.79,57.16,33.24,35.02
"2018-05-02 07:00:00",338791,0.578,151.5,11.34,63.49,65.82722,0,866.4336,0,-3.453,3.149,198,10.37,9.98,8.980491,0.135,49.79,57.16,33.24,35.02
"2018-05-02 07:10:00",338792,0.276,297.5,11.48,65.11,107.0779,0,866.3957,0,-3.681,3.151,195,10.35,9.99,16.03903,0.15,49.79,57.22,33.24,35.03
"2018-05-02 07:20:00",338793,0.343,147.8,11.64,65.23,115.1675,0,866.3957,0,-3.239,3.146,189,10.34,9.98,17.01303,0.148,49.79,57.16,33.24,35.02
"2018-05-02 07:30:00",338794,0.06,206.3,11.92,64.3,107.352,0,866.3957,0,-3.619,3.147,187,10.32,9.96,15.77994,0.147,49.79,57.16,33.24,35.02
"2018-05-02 07:40:00",338795,0.113,300.9,11.92,66.2,95.22496,0,866.6168,0,-3.354,3.146,197,10.29,9.93,13.4245,0.141,49.73,57.22,33.23,35.03
"2018-05-02 07:50:00",338796,0.383,325.8,11.73,64.22,94.88778,0,866.5052,0,-3.148,3.145,192,10.27,9.88,13.16202,0.138,49.79,57.22,33.24,35.03
"2018-05-02 08:00:00",338797,0.18,148.2,11.84,63.84,129.1034,0,866.64,0,-3.34,3.145,189,10.26,9.83,18.92575,0.145,49.79,57.22,33.24,35.03
"2018-05-02 08:10:00",338798,0.206,32.75,12.01,64.01,119.8371,0,866.7306,0,-3.24,3.145,192,10.25,9.82,16.90174,0.141,49.79,57.16,33.24,35.02
"2018-05-02 08:20:00",338799,0.478,152,11.89,62.22,146.6284,0,866.642,0,-2.421,3.137,195,10.25,9.81,21.521,0.147,49.79,57.16,33.24,35.02
"2018-05-02 08:30:00",338800,0.592,129.5,11.84,59.95,192.9186,0,866.501,0,-2.625,3.139,187,10.25,9.81,29.47893,0.153,49.79,57.22,33.24,35.03
"2018-05-02 08:40:00",338801,0.395,116.9,12.08,58.49,155.2975,0,866.4716,0,-2.795,3.139,185,10.3,9.81,23.12381,0.148,49.79,57.22,33.24,35.03
"2018-05-02 08:50:00",338802,0.513,133.6,12.13,57.72,149.964,0,866.3177,0,-4.484,3.156,183,10.32,9.81,22.60084,0.151,49.79,57.22,33.24,35.03
"2018-05-02 09:00:00",338803,0.423,110,12.34,56.2,143.1253,0,866.1071,0,-3.828,3.146,200,10.33,9.81,22.38105,0.156,49.79,57.22,33.24,35.03
"2018-05-02 09:10:00",338804,0.449,128.9,12.81,52.72,135.7521,0,866.0924,0,-4.437,3.151,192,10.33,9.8,20.45596,0.151,49.79,57.22,33.24,35.03
"2018-05-02 09:20:00",338805,0.382,118.6,12.79,53.96,157.5966,0,865.8923,0,-2.961,3.138,194,10.33,9.79,23.47244,0.149,49.79,57.16,33.24,35.02
"2018-05-02 09:30:00",338806,0.234,125.4,12.75,55.61,172.8265,0,865.8903,0,-2.542,3.132,195,10.31,9.78,25.95459,0.15,49.79,57.16,33.24,35.02
"2018-05-02 09:40:00",338807,0.41,124.2,13.13,54.63,185.879,0,865.8355,0,-2.736,3.132,198,10.3,9.76,28.31548,0.152,49.79,57.16,33.24,35.02
"2018-05-02 09:50:00",338808,0.557,145.4,13.49,51.29,222.2459,0,865.6943,0,-3.028,3.132,209,10.32,9.75,33.72316,0.152,49.79,57.16,33.24,35.02
"2018-05-02 10:00:00",338809,0.777,126.6,13.78,49.81,250.0056,0,865.6922,0,-2.183,3.124,225,10.33,9.73,39.02094,0.155,49.79,57.16,33.24,35.02
"2018-05-02 10:10:00",338810,0.34,138.4,14.19,49.12,259.5522,0,865.6375,0,-3.005,3.128,193,10.34,9.73,40.15401,0.154,49.79,57.22,33.24,35.03
"2018-05-02 10:20:00",338811,0.501,145.8,14.59,46.34,337.7178,0,865.6143,0,-3.277,3.129,192,10.36,9.73,52.61024,0.156,49.84,57.16,33.26,35.02
"2018-05-02 10:30:00",338812,0.502,134.7,14.43,45.58,260.2754,0,865.3911,0,-3.168,3.131,195,10.33,9.73,40.03275,0.154,49.84,57.16,33.26,35.02
"2018-05-02 10:40:00",338813,0.567,134.1,14.35,43.17,220.6345,0,865.2899,0,-3.778,3.136,189,10.34,9.67,32.87809,0.149,49.79,57.16,33.24,35.02
"2018-05-02 10:50:00",338814,0.779,137.4,14.57,41.25,227.878,0,865.153,0,-3.688,3.133,184,10.44,9.64,34.67812,0.152,49.73,57.16,33.23,35.02
"2018-05-02 11:00:00",338815,0.562,148.1,15.02,39.07,350.837,0,865.113,0,-2.541,3.119,197,10.48,9.64,55.86168,0.159,49.73,57.1,33.23,35.01
"2018-05-02 11:10:00",338816,0.832,143.2,15.55,35.72,430.6415,0,864.8561,0,-2.836,3.12,190,10.42,9.64,67.96927,0.158,49.79,57.16,33.24,35.02
"2018-05-02 11:20:00",338817,0.434,163,15.79,35.04,283.8492,0,864.6264,0,-2.405,3.113,197,10.41,9.64,42.69301,0.15,49.79,57.16,33.24,35.02
"2018-05-02 11:30:00",338818,0.464,57.4,16.42,34.84,434.0688,0,864.5317,0,-3.13,3.117,182,10.5,9.64,67.29473,0.155,49.79,57.1,33.24,35.01
"2018-05-02 11:40:00",338819,0.769,61.57,16.65,39.05,593.9056,0,864.399,0,-2.155,3.108,192,10.5,9.64,94.14365,0.158,49.73,57.16,33.23,35.02
"2018-05-02 11:50:00",338820,0.419,87.9,16.59,42.59,380.7033,0,864.2305,0,-2.304,3.116,187,10.55,9.64,54.34206,0.142,49.79,57.16,33.24,35.02
"2018-05-02 12:00:00",338821,0.508,36.25,15.33,44.27,273.8073,0,863.9648,0,-2.147,3.114,172,10.59,9.64,37.92576,0.139,49.73,57.1,33.23,35.01
"2018-05-02 12:10:00",338822,0.58,112,15.57,39.18,253.5389,0,863.8306,0,-2.044,3.113,190,10.62,9.66,36.30005,0.142,49.73,57.16,33.23,35.02
"2018-05-02 12:20:00",338823,0.418,161.8,16.28,34.97,548.9,0,863.614,0,-1.876,3.106,192,10.59,9.65,86.10603,0.156,49.73,57.16,33.23,35.02
"2018-05-02 12:30:00",338824,0.716,142.9,16.37,32.79,355.3372,0,863.6024,0,-2.556,3.114,189,10.56,9.64,51.6477,0.143,49.73,57.16,33.23,35.02
"2018-05-02 12:40:00",338825,0.424,111.5,16.34,33.1,450.5524,0,863.4173,0,-2.36,3.11,199,10.66,9.65,69.79582,0.151,49.73,57.1,33.23,35.01
"2018-05-02 12:50:00",338826,0.575,125.8,16.38,32.57,237.9671,0,863.35,0,-2.254,3.112,192,10.65,9.64,32.96904,0.136,49.73,57.16,33.23,35.02
"2018-05-02 13:00:00",338827,0.707,128.9,15.99,32.68,164.5847,0,863.1604,0,-2.425,3.116,197,10.64,9.61,21.36924,0.129,49.73,57.1,33.23,35.01
"2018-05-02 13:10:00",338828,0.381,78.06,15.61,36.04,114.2652,0,863.133,0,-2.407,3.117,198,10.75,9.59,14.11226,0.123,49.73,57.16,33.23,35.02
"2018-05-02 13:20:00",338829,0.53,40.88,15.47,40.38,182.385,0,863.1098,0,-2.431,3.117,192,10.77,9.56,25.73859,0.14,49.73,57.16,33.23,35.02
"2018-05-02 13:30:00",338830,0.555,21.48,15.56,41.61,224.5137,0,863.1098,0,-2.353,3.116,184,10.79,9.56,32.29829,0.144,49.73,57.16,33.23,35.02
"2018-05-02 13:40:00",338831,0.42,27.27,15.53,42.25,145.7508,0,863.0972,0,-2.619,3.12,201,10.88,9.57,18.97804,0.128,49.73,57.1,33.23,35.01
"2018-05-02 13:50:00",338832,0.192,150.7,15.18,44.59,158.0447,0,862.8929,0,-2.777,3.122,202,10.86,9.55,21.07366,0.133,49.73,57.16,33.23,35.02
"2018-05-02 14:00:00",338833,0.353,96.1,15.26,44.5,222.9809,0,862.6507,0,-2.722,3.121,213,10.92,9.57,30.48689,0.136,49.68,57.16,33.22,35.02
"2018-05-02 14:10:00",338834,0.507,26.44,15.25,43.18,123.9102,0,862.6254,0,-2.68,3.122,208,10.97,9.57,14.87017,0.116,49.68,57.16,33.22,35.02
"2018-05-02 14:20:00",338835,0.433,105.7,14.77,46.07,85.12215,0,862.4864,0,-2.438,3.122,212,10.97,9.57,9.538283,0.106,49.68,57.1,33.22,35.01
"2018-05-02 14:30:00",338836,0.636,92.5,14.58,46.32,109.3327,0,862.3348,0,-2.697,3.125,228,10.95,9.56,13.44151,0.123,49.68,57.16,33.22,35.02
"2018-05-02 14:40:00",338837,0.416,69.64,14.51,47.57,85.87283,0,862.2695,0,-2.54,3.123,211,10.94,9.56,10.40988,0.121,49.68,57.1,33.22,35.01
"2018-05-02 14:50:00",338838,0.637,13.57,14.33,48.96,68.93723,0,862.2442,0,-2.474,3.124,231,10.94,9.57,8.393841,0.122,49.68,57.1,33.22,35.01
"2018-05-02 15:00:00",338839,0.25,0.025,14.16,50.87,67.94287,0,862.1115,0,-1.967,3.12,249,11,9.57,8.446895,0.124,49.68,57.1,33.22,35.01
"2018-05-02 15:10:00",338840,0.267,25.78,14.13,52.22,63.7296,0,862.0841,0,-2.769,3.129,216,11.06,9.61,7.817831,0.122,49.68,57.16,33.22,35.02
"2018-05-02 15:20:00",338841,0.382,301.9,13.68,56.57,52.88987,0,861.9219,0,-2.888,3.133,220,11.07,9.61,6.328539,0.12,49.68,57.1,33.22,35.01
"2018-05-02 15:30:00",338842,0.577,330.4,13.05,62.69,42.33312,0,861.9072,0,-3.419,3.142,192,11.07,9.64,4.975672,0.118,49.68,57.1,33.22,35.01
"2018-05-02 15:40:00",338843,0.295,322.2,12.69,67.69,35.18786,0,861.8461,0,-4.14,3.15,190,11.07,9.65,5.059042,0.145,49.62,57.1,33.2,35.01
"2018-05-02 15:50:00",338844,0.277,280.2,12.4,70.95,25.46826,0,861.8461,0,-3.423,3.143,186,11.08,9.68,4.4944,0.178,49.62,57.1,33.2,35.01
"2018-05-02 16:00:00",338845,0.39,310.6,12.16,74.38,35.8678,0,861.6965,0,-3.564,3.147,192,11.1,9.68,5.597157,0.157,49.68,57.1,33.22,35.01
"2018-05-02 16:10:00",338846,0.253,302.3,12.16,76.7,26.07745,0,861.5955,0,-3.646,3.149,175,11.11,9.68,4.520926,0.174,49.68,57.1,33.22,35.01
"2018-05-02 16:20:00",338847,0.479,200.9,12.04,77.01,21.931,0,861.5891,0,-4.124,3.152,193,11.11,9.68,4.433767,0.205,49.62,57.1,33.2,35.01
"2018-05-02 16:30:00",338848,0.217,75.83,12.16,79.6,17.90639,0,861.6039,0,-3.943,3.15,191,11.11,9.68,3.963863,0.225,49.62,57.1,33.2,35.01
"2018-05-02 16:40:00",338849,0.46,104.6,12.2,80.1,21.92314,0,861.5407,0,-3.866,3.149,189,11.11,9.68,4.589139,0.21,49.68,57.1,33.22,35.01
"2018-05-02 16:50:00",338850,0.367,51.98,12.06,84.3,21.66374,0,861.3365,0,-4.307,3.155,186,11.11,9.67,4.130603,0.193,49.62,57.1,33.2,35.01
"2018-05-02 17:00:00",338851,0.641,165,12.13,85.5,19.45492,0,861.1785,0,-4.864,3.159,174,11.11,9.68,4.100287,0.211,49.62,57.1,33.2,35.01
"2018-05-02 17:10:00",338852,0.237,177.2,12.14,86.3,21.51048,0,861.0963,0,-4.411,3.156,194,11.11,9.68,4.176082,0.195,49.62,57.1,33.2,35.01
"2018-05-02 17:20:00",338853,0.255,337.4,11.81,96.8,23.67242,0,861.0184,0,-4.877,3.162,184,11.11,9.71,3.850226,0.163,49.62,57.1,33.2,35.01
"2018-05-02 17:30:00",338854,0.293,239,11.63,97.9,13.83483,0,860.8436,0,-4.854,3.162,172,11.11,9.73,2.607248,0.19,49.62,57.1,33.2,35.01
"2018-05-02 17:40:00",338855,0.214,309.8,11.54,100,8.552436,0,860.8351,0,-4.731,3.162,187,11.1,9.73,1.853116,0.221,49.62,57.1,33.2,35.01
"2018-05-02 17:50:00",338856,0.207,92.8,11.48,100,6.642308,0,860.7361,0,-4.245,3.157,189,11.05,9.73,1.629534,0.249,49.62,57.04,33.2,34.99
"2018-05-02 18:00:00",338857,0.196,197.4,11.51,100,5.545762,0,860.5823,0,-4.22,3.156,184,11.04,9.73,1.470378,0.268,49.62,57.04,33.2,34.99
"2018-05-02 18:10:00",338858,0.286,353.6,11.57,100,3.549219,0,860.4876,0,-3.918,3.153,194,11.07,9.74,1.424937,0.408,49.62,57.04,33.2,34.99
"2018-05-02 18:20:00",338859,0.406,290.2,11.7,100,1.7098,0,860.3297,0,-4.017,3.153,194,11.09,9.76,1.265802,0.828,49.62,57.04,33.2,34.99
"2018-05-02 18:30:00",338860,0.612,331.5,11.92,96.5,0.231903,0,860.3297,0,-3.919,3.152,189,11.09,9.81,1.33402,1.028,49.62,57.04,33.2,34.99
"2018-05-02 18:40:00",338861,0.482,16.95,11.9,99.8,0,0,860.3297,0,-4.325,3.155,192,11.11,9.84,1.049814,0,49.62,57.04,33.2,34.99
"2018-05-02 18:50:00",338862,0.635,149.4,12.01,98.6,0,0,860.2917,0,-4.015,3.15,180,11.09,9.84,1.114265,0,49.57,57.04,33.19,34.99
"2018-05-02 19:00:00",338863,0.514,70.29,12.36,93.9,0,0,860.1042,0,-4.527,3.155,179,11.07,9.84,1.315166,0,49.62,57.04,33.2,34.99
"2018-05-02 19:10:00",338864,0.729,141.5,12.11,100,0,0,860.039,0,-4.029,3.152,194,11.07,9.85,0.7087628,0,49.62,57.04,33.2,34.99
"2018-05-02 19:20:00",338865,0.619,139.4,12.01,100,0,0.5,859.8389,0,-3.522,3.147,193,11.08,9.84,0.5609635,0,49.62,57.04,33.2,34.99
"2018-05-02 19:30:00",338866,0.346,102.9,12.05,100,0,0,859.7568,0,-3.566,3.147,194,11.08,9.86,0.5344322,0,49.62,57.04,33.2,34.99
"2018-05-02 19:40:00",338867,0.436,227.4,12.12,100,0,0,859.5777,0,-3.458,3.146,194,11.06,9.87,0.6935884,0,49.62,57.04,33.2,34.99
"2018-05-02 19:50:00",338868,0.417,358.7,12.03,100,0,0.5,859.5714,0,-2.803,3.14,199,11.06,9.86,0.3790116,0,49.57,57.04,33.19,34.99
"2018-05-02 20:00:00",338869,0.428,1.684,11.94,100,0,0,859.483,0,-2.558,3.138,209,11.08,9.88,0.329759,0,49.62,57.04,33.2,34.99
"2018-05-02 20:10:00",338870,0.639,348.1,12.01,100,0,0,859.3903,0,-2.276,3.134,213,11.11,9.88,0.4738089,0,49.62,57.04,33.2,34.99
"2018-05-02 20:20:00",338871,0.86,154.3,12.31,100,0,0,859.3187,0,-1.987,3.129,233,11.12,9.89,0.9362779,0,49.62,57.04,33.2,34.99
"2018-05-02 20:30:00",338872,1.187,152.3,12.79,100,0,0,859.2133,0,-2.42,3.13,252,11.05,9.88,1.30771,0,49.62,56.98,33.2,34.98
"2018-05-02 20:40:00",338873,0.774,155,13.09,100,0,0,859.1038,0,-2.939,3.136,244,11.01,9.87,1.273583,0,49.62,56.98,33.2,34.98
"2018-05-02 20:50:00",338874,0.742,155.9,13.01,100,0,0,859.1249,0,-1.349,3.12,294,11,9.87,1.068896,0,49.62,56.98,33.2,34.98
"2018-05-02 21:00:00",338875,0.86,191.7,13.07,100,0,0,859.0575,0,-1.695,3.122,249,11,9.87,1.065102,0,49.62,56.98,33.2,34.98
"2018-05-02 21:10:00",338876,1.089,155.5,13.36,99.4,0,0,858.849,0,-2.554,3.129,219,10.99,9.86,1.508524,0,49.57,56.98,33.19,34.98
"2018-05-02 21:20:00",338877,1.192,151.4,13.5,97.3,0,0,858.6931,0,-1.88,3.122,263,10.98,9.86,1.550197,0,49.62,57.04,33.2,34.99
"2018-05-02 21:30:00",338878,1.036,136.7,13.7,94.4,0,0.5,858.5667,0.5,-3.365,3.136,235,10.98,9.85,1.644898,0,49.62,56.98,33.2,34.98
"2018-05-02 21:40:00",338879,0.955,130.7,13.7,97.6,0,0,858.413,0,-4.032,3.143,209,10.98,9.86,1.315181,0,49.57,56.98,33.19,34.98
"2018-05-02 21:50:00",338880,0.516,32.95,13.54,100,0,0.5,858.2993,0.5,-4.089,3.145,214,10.98,9.88,0.8262457,0,49.62,56.98,33.2,34.98
"2018-05-02 22:00:00",338881,0.775,264.8,13.29,100,0,0,858.0992,0,-2.755,3.133,208,10.95,9.86,0.6177651,0,49.57,56.98,33.19,34.98
"2018-05-02 22:10:00",338882,0.928,161.2,13.33,100,0,0.5,857.8969,0.5,-3.338,3.137,192,10.9,9.88,0.8110437,0,49.62,56.98,33.2,34.98
"2018-05-02 22:20:00",338883,0.616,202.5,13.44,100,0,0.5,857.798,0.5,-2.689,3.13,177,10.88,9.91,0.7996643,0,49.62,56.98,33.2,34.98
"2018-05-02 22:30:00",338884,0.644,345.8,13.15,100,0,1,857.8254,1,-2.404,3.131,192,10.87,9.9,0.1705417,0,49.62,56.98,33.2,34.98
"2018-05-02 22:40:00",338885,0.71,43.92,12.88,100,0,1,857.9433,1,-2.455,3.132,200,10.89,9.91,0.04926794,0,49.62,56.98,33.2,34.98
"2018-05-02 22:50:00",338886,0.665,78,12.82,100,0,0,857.8359,0,-2.477,3.132,201,10.9,9.9,0.2008589,0,49.73,56.98,33.23,34.98
"2018-05-02 23:00:00",338887,0.592,77.41,12.96,100,0.01179135,0,857.8043,0,-2.75,3.134,198,10.89,9.89,0.4092859,0.161,49.79,56.98,33.24,34.98
"2018-05-02 23:10:00",338888,1.208,130.3,13,100,0,0,857.5641,0,-2.485,3.13,199,10.89,9.89,0.3751703,0,49.9,56.98,33.27,34.98
"2018-05-02 23:20:00",338889,0.741,83.7,13.22,100,0,0.5,857.5305,0.5,-2.693,3.132,193,10.87,9.89,0.3789661,0,50.01,56.98,33.3,34.98
"2018-05-02 23:30:00",338890,0.87,48.09,13.19,100,0,0,857.3389,0,-2.591,3.131,190,10.87,9.89,0.2311717,0,50.11,56.98,33.33,34.98
"2018-05-02 23:40:00",338891,0.781,31.83,13.13,100,0,0,857.3094,0,-2.799,3.133,182,10.87,9.91,0.1819075,0,50.22,57.04,33.35,34.99
"2018-05-02 23:50:00",338892,0.694,0.903,13.24,100,0,0,857.1788,0,-2.743,3.132,201,10.88,9.91,0.2577024,0,50.28,57.04,33.37,34.99
